SCOUT A DEB, 2702

Orbit data source: Space-Track

SCOUT A DEB, 2702 is space debris in LEO originally from a launch on Thu, 18 Aug 1966 UTC launched from the Air Force Western Test Range (AFWTR). Debris objects in space refer to the collection of defunct objects orbiting the Earth. Examples of debris include non-operational satellites, rocket bodies, and fragments generated from explosions, collisions, or faulty payload assembly.

Loading next visibility...
SCOUT A DEB details
Identifier
2702, 1966-076D
Orbit
LEO
Last TLE update1 day ago
Origin
Flag of USUSN NAVAIR (US)
ManufacturerUnknown
MissionSpacecraft
Bus & MotorUnknown
MassUnknown
Launch date (UTC)
1966-08-18 (58 years ago)
Launch vehicleUnknown
Launch site
Air Force Western Test Range (AFWTR)
Object type
Payload
Rocket body
Debris
Shape & HBRUnknown
Radar Cross SectionSmall (<0.1 m²)

Expand to show TLE details & history

TLE from 1 day ago
0 SCOUT A DEB
1 02702U 66076D   25042.52040395  .00000138  00000-0  23894-3 0  9998
2 02702  88.5769 327.2580 0086633 216.5179 196.5577 13.36431366830793
Epoch: 2025-02-11T12:29Z
Definitive object data (Epoch: 2025-02-11T12:29:22.901Z)
Latitude52.86497°
Longitude-0.04097°
Altitude1,193.624 km
Speed7.232 km/s
True Right ascension21h 56m 30s
True Declination52° 42' 32"
Sunlit
Object was in daylight at TLE epoch
Visualization TLE readout
Latitude58.4399°
Longitude0.24771°
Altitude1,191.434 km
Speed7.235 km/s
Apparent Right ascension01h 29m 55s
Apparent Declination21° 03' 44"
Sunlit
Object is in daylight
Visualization observer readout
Local Sidereal Time16:11:26
Azimuth39.558° NE
Elevation-18.34°
Doppler factor1
Orbital elements
Apogee altitude1,184.633 km
Perigee altitude1,054.721 km
Semi-major axis7,497.814 km
Eccentricity0.0086633
Inclination88.5769°
RAAN327.258°
Arg. of periapsis216.5179°
True anomaly196.2777°
Mean anomaly196.5577°
Eccentric anomaly196.41741°
Mean motion3.34304 °/min
BSTAR0.00023894
Orbital period107.69 mins
Loading maneuver chart data...
Loading historical data...
Loading historical data...
Loading historical data...
Loading historical data...
Loading historical data...
Loading historical data...
Loading historical data...

SCOUT A DEB Visibility forecast

Observer location: undefined°, undefined

Span
Click to sort rows by Start time (UTC) header in descending order
Start Az.
Max El. time (UTC)
Max El. Az.
Max El.
End time (UTC)
End Az.
13 mins2025-02-12 18:51:28.395Z163.537° S2025-02-12 18:58:28.395Z80.664° E41.828°2025-02-12 19:04:28.395Z7.772° NNE
9 mins2025-02-12 20:42:28.395Z241.586° WSW2025-02-12 20:46:28.395Z281.109° WNW21.13°2025-02-12 20:51:28.395Z328.802° NNW
10 mins2025-02-13 06:10:28.395Z24.17° NE2025-02-13 06:15:28.395Z86.859° E30.415°2025-02-13 06:20:28.395Z143.584° SSE
10 mins2025-02-13 07:58:28.395Z335.639° NNW2025-02-13 08:02:28.395Z288.305° WNW30.478°2025-02-13 08:08:28.395Z218.478° SW
|